• Em Portugal
  • Lista de países
  • Para 7 dias
  • Temperatura da água
  • Mapas de satélite
  • Mapa do tempo
  • Widgets de tempo
  • user-avatar
    Iniciar Sessão

    Previsão horária em Kakanj

    Hoje, 20 Setembro, Quinta-feira

    Tempo Temperatura Precipitação Vento Pressão Humidade
    00:00 +18°C° 0 mm 1 m/s 726 mmHg 79%
    01:00 +17°C° 0 mm 0 m/s 726 mmHg 74%
    02:00 +17°C° 0 mm 0 m/s 726 mmHg 74%
    03:00 +17°C° 0 mm 0 m/s 726 mmHg 74%
    04:00 +17°C° 0 mm 0 m/s 726 mmHg 74%
    05:00 +17°C° 0 mm 0 m/s 726 mmHg 73%
    06:00 +18°C° 0 mm 0 m/s 726 mmHg 71%
    07:00 +19°C° 0 mm 0 m/s 726 mmHg 69%
    08:00 +22°C° 0 mm 1 m/s 726 mmHg 63%
    09:00 +24°C° 0 mm 1 m/s 727 mmHg 56%
    10:00 +26°C° 0 mm 1 m/s 727 mmHg 50%
    11:00 +27°C° 0.2 mm 1 m/s 726 mmHg 48%
    12:00 +27°C° 0.2 mm 1 m/s 726 mmHg 47%
    13:00 +27°C° 0.2 mm 2 m/s 726 mmHg 46%
    14:00 +27°C° 0.3 mm 1 m/s 726 mmHg 50%
    15:00 +26°C° 0.3 mm 1 m/s 725 mmHg 55%
    16:00 +25°C° 0.3 mm 1 m/s 725 mmHg 59%
    17:00 +24°C° 0.1 mm 1 m/s 725 mmHg 63%
    18:00 +22°C° 0.1 mm 1 m/s 725 mmHg 68%
    19:00 +19°C° 0.1 mm 0 m/s 725 mmHg 72%
    20:00 +20°C° 0.1 mm 1 m/s 725 mmHg 74%
    21:00 +20°C° 0.1 mm 1 m/s 725 mmHg 75%
    22:00 +20°C° 0.1 mm 1 m/s 725 mmHg 77%
    23:00 +19°C° 0.2 mm 1 m/s 725 mmHg 79%

    Amanhã, 21 Setembro, Sexta-feira

    Tempo Temperatura Precipitação Vento Pressão Humidade
    00:00 +19°C° 0.2 mm 1 m/s 725 mmHg 81%
    01:00 +19°C° 0.2 mm 1 m/s 724 mmHg 83%
    02:00 +19°C° 0.2 mm 1 m/s 724 mmHg 84%
    03:00 +19°C° 0.2 mm 1 m/s 724 mmHg 85%
    04:00 +19°C° 0.2 mm 1 m/s 724 mmHg 87%
    05:00 +19°C° 0.1 mm 1 m/s 724 mmHg 86%
    06:00 +20°C° 0.1 mm 1 m/s 724 mmHg 84%
    07:00 +20°C° 0.1 mm 1 m/s 724 mmHg 83%
    08:00 +22°C° 0.1 mm 1 m/s 725 mmHg 76%
    09:00 +24°C° 0.1 mm 1 m/s 725 mmHg 68%
    10:00 +26°C° 0.1 mm 1 m/s 725 mmHg 61%
    11:00 +27°C° 0.8 mm 1 m/s 725 mmHg 58%
    12:00 +28°C° 0.8 mm 1 m/s 724 mmHg 55%
    13:00 +29°C° 0.8 mm 1 m/s 724 mmHg 52%
    14:00 +28°C° 0.9 mm 1 m/s 724 mmHg 55%
    15:00 +28°C° 0.9 mm 1 m/s 724 mmHg 58%
    16:00 +27°C° 0.9 mm 1 m/s 723 mmHg 61%
    17:00 +25°C° 0.4 mm 1 m/s 723 mmHg 67%
    18:00 +23°C° 0.4 mm 1 m/s 723 mmHg 74%
    19:00 +21°C° 0.4 mm 1 m/s 723 mmHg 81%
    20:00 +20°C° 0.1 mm 1 m/s 724 mmHg 83%
    21:00 +20°C° 0.1 mm 1 m/s 724 mmHg 85%
    22:00 +19°C° 0.1 mm 1 m/s 724 mmHg 87%
    23:00 +19°C° 0 mm 1 m/s 724 mmHg 88%

    Depois de amanhã, 22 Setembro, Sábado

    Tempo Temperatura Precipitação Vento Pressão Humidade
    00:00 +18°C° 0 mm 1 m/s 724 mmHg 88%
    01:00 +18°C° 0 mm 1 m/s 724 mmHg 88%
    02:00 +18°C° 0 mm 1 m/s 724 mmHg 88%
    03:00 +18°C° 0 mm 1 m/s 724 mmHg 88%
    04:00 +16°C° 0 mm 1 m/s 724 mmHg 87%
    05:00 +18°C° 0 mm 1 m/s 724 mmHg 85%
    06:00 +19°C° 0 mm 1 m/s 725 mmHg 82%
    07:00 +20°C° 0 mm 1 m/s 725 mmHg 79%
    08:00 +22°C° 0 mm 1 m/s 726 mmHg 71%
    09:00 +24°C° 0 mm 1 m/s 726 mmHg 63%
    10:00 +27°C° 0 mm 1 m/s 727 mmHg 55%
    11:00 +26°C° 0.1 mm 2 m/s 727 mmHg 57%
    12:00 +25°C° 0.1 mm 2 m/s 727 mmHg 59%
    13:00 +25°C° 0.1 mm 3 m/s 727 mmHg 61%
    14:00 +24°C° 0.1 mm 3 m/s 727 mmHg 61%
    15:00 +22°C° 0.1 mm 3 m/s 727 mmHg 60%
    16:00 +21°C° 0.1 mm 3 m/s 727 mmHg 60%
    17:00 +19°C° 0 mm 2 m/s 727 mmHg 61%
    18:00 +18°C° 0 mm 2 m/s 728 mmHg 63%
    19:00 +16°C° 0 mm 1 m/s 728 mmHg 65%
    20:00 +15°C° 0 mm 1 m/s 728 mmHg 66%
    21:00 +14°C° 0 mm 1 m/s 728 mmHg 68%
    22:00 +13°C° 0 mm 1 m/s 729 mmHg 69%
    23:00 +13°C° 0 mm 1 m/s 728 mmHg 70%

    23 Setembro, Domingo

    Tempo Temperatura Precipitação Vento Pressão Humidade
    00:00 +13°C° 0 mm 1 m/s 728 mmHg 70%
    01:00 +11°C° 0 mm 0 m/s 728 mmHg 71%
    02:00 +12°C° 0 mm 1 m/s 728 mmHg 72%
    03:00 +12°C° 0 mm 1 m/s 728 mmHg 72%
    04:00 +12°C° 0 mm 1 m/s 728 mmHg 73%
    05:00 +13°C° 0 mm 1 m/s 728 mmHg 71%
    06:00 +14°C° 0 mm 1 m/s 728 mmHg 69%
    07:00 +15°C° 0 mm 1 m/s 728 mmHg 67%
    08:00 +20°C° 0 mm 1 m/s 728 mmHg 60%
    09:00 +23°C° 0 mm 1 m/s 729 mmHg 54%
    10:00 +26°C° 0 mm 1 m/s 729 mmHg 47%
    11:00 +28°C° 0 mm 1 m/s 728 mmHg 46%
    12:00 +29°C° 0 mm 1 m/s 728 mmHg 44%
    13:00 +30°C° 0 mm 1 m/s 728 mmHg 42%
    14:00 +30°C° 0 mm 1 m/s 727 mmHg 45%
    15:00 +29°C° 0 mm 1 m/s 726 mmHg 48%
    16:00 +29°C° 0 mm 1 m/s 726 mmHg 51%
    17:00 +26°C° 0 mm 1 m/s 725 mmHg 59%
    18:00 +24°C° 0 mm 1 m/s 725 mmHg 67%
    19:00 +20°C° 0 mm 2 m/s 725 mmHg 75%
    20:00 +20°C° 0 mm 2 m/s 725 mmHg 79%
    21:00 +19°C° 0 mm 2 m/s 724 mmHg 82%
    22:00 +19°C° 0 mm 2 m/s 724 mmHg 85%
    23:00 +18°C° 0 mm 2 m/s 724 mmHg 85%

    24 Setembro, Segunda-feira

    Tempo Temperatura Precipitação Vento Pressão Humidade
    00:00 +18°C° 0 mm 2 m/s 723 mmHg 84%
    01:00 +18°C° 0 mm 2 m/s 723 mmHg 83%
    02:00 +18°C° 0 mm 2 m/s 722 mmHg 82%
    03:00 +18°C° 0 mm 3 m/s 722 mmHg 81%
    04:00 +18°C° 0 mm 3 m/s 721 mmHg 80%
    05:00 +18°C° 0 mm 2 m/s 722 mmHg 79%
    06:00 +19°C° 0 mm 2 m/s 722 mmHg 78%
    07:00 +20°C° 0 mm 2 m/s 723 mmHg 77%
    08:00 +21°C° 0.1 mm 2 m/s 724 mmHg 72%
    09:00 +24°C° 0.1 mm 2 m/s 725 mmHg 67%
    10:00 +26°C° 0.1 mm 3 m/s 726 mmHg 62%
    11:00 +21°C° 0.5 mm 3 m/s 727 mmHg 70%
    12:00 +17°C° 0.5 mm 2 m/s 727 mmHg 78%
    13:00 +13°C° 0.5 mm 2 m/s 728 mmHg 85%
    14:00 +13°C° 0 mm 2 m/s 728 mmHg 83%
    15:00 +13°C° 0 mm 2 m/s 728 mmHg 81%
    16:00 +12°C° 0 mm 2 m/s 729 mmHg 78%
    17:00 +12°C° 0 mm 2 m/s 729 mmHg 79%
    18:00 +12°C° 0 mm 1 m/s 729 mmHg 79%
    19:00 +11°C° 0 mm 1 m/s 729 mmHg 79%
    20:00 +11°C° 0 mm 1 m/s 729 mmHg 76%
    21:00 +11°C° 0 mm 1 m/s 730 mmHg 73%
    22:00 +12°C° 0 mm 1 m/s 730 mmHg 71%
    23:00 +10°C° 0 mm 2 m/s 730 mmHg 72%

    25 Setembro, Terça-feira

    Tempo Temperatura Precipitação Vento Pressão Humidade
    00:00 +9°C° 0 mm 2 m/s 730 mmHg 74%
    01:00 +9°C° 0 mm 2 m/s 730 mmHg 76%
    02:00 +9°C° 0.6 mm 2 m/s 730 mmHg 79%
    03:00 +8°C° 0.6 mm 2 m/s 730 mmHg 83%
    04:00 +8°C° 0.6 mm 2 m/s 731 mmHg 87%
    05:00 +8°C° 1.6 mm 2 m/s 731 mmHg 88%
    06:00 +9°C° 1.6 mm 1 m/s 731 mmHg 89%
    07:00 +9°C° 1.6 mm 1 m/s 731 mmHg 91%
    08:00 +8°C° 0.1 mm 2 m/s 731 mmHg 85%
    09:00 +9°C° 0.1 mm 2 m/s 731 mmHg 80%
    10:00 +10°C° 0.1 mm 3 m/s 732 mmHg 75%
    11:00 +11°C° 0 mm 3 m/s 731 mmHg 67%
    12:00 +12°C° 0 mm 3 m/s 731 mmHg 59%
    13:00 +13°C° 0 mm 3 m/s 731 mmHg 51%
    14:00 +13°C° 0 mm 3 m/s 731 mmHg 50%
    15:00 +13°C° 0 mm 3 m/s 730 mmHg 48%
    16:00 +13°C° 0 mm 3 m/s 730 mmHg 47%
    17:00 +11°C° 0 mm 3 m/s 730 mmHg 52%
    18:00 +10°C° 0 mm 2 m/s 731 mmHg 58%
    19:00 +8°C° 0 mm 2 m/s 731 mmHg 63%
    20:00 +7°C° 0 mm 2 m/s 731 mmHg 65%
    21:00 +6°C° 0 mm 2 m/s 731 mmHg 66%
    22:00 +6°C° 0 mm 2 m/s 732 mmHg 67%
    23:00 +5°C° 0 mm 2 m/s 732 mmHg 69%
    Mostrar mais